User: anonymous   Login
Location: St Andrew
(49.4460°N, 2.5750°W)
Time: 02:37:53
(UTC+01:00)
Language:

Iridium 66 - Orbit

View from above orbital plane
View from above orbital plane
View from above satellite
View from above satellite

Ground track
Ground track

The orbit data is extracted from the following two-line orbital elements,

1 25289U 98021E   17112.91265629 +.00000150 +00000-0 +46535-4 0  9991
2 25289 086.3964 246.8358 0002156 098.4382 261.7058 14.34214956997090
Epoch (UTC): 22 April 2017 21:54:13
Eccentricity: 0.0002156
inclination: 86.3964°
perigee height: 776 km
apogee height: 779 km
right ascension of ascending node: 246.8358°
argument of perigee: 98.4382°
revolutions per day: 14.34214956
mean anomaly at epoch: 261.7058°
orbit number at epoch: 99709

The dashed part of the orbit path shows where the satellite is in the earth's shadow,  

DLR